Weather History for Hazlehurst, GA

Change the Weather History Date:

Wednesday, September 18, 2013

  Actual Average Record
Temperature  
Mean Temperature 74 °F -  
Max Temperature 83 °F 68 °F 84 °F (2014)
Min Temperature 65 °F 60 °F 65 °F (2013)
Cooling Degree Days 9    
Growing Degree Days 24 (Base 50)    
Moisture  
Dew Point 64 °F    
Average Humidity 73    
Maximum Humidity 92    
Minimum Humidity 46    
Precipitation  
Precipitation 0.00 in - - ()
Sea Level Pressure  
Sea Level Pressure 30.15 in    
Wind  
Wind Speed 6 mph (NE)    
Max Wind Speed 12 mph    
Max Gust Speed 24 mph    
Visibility 10 miles    
Events      
Averages and records for this station are not official NWS values.
T = Trace of Precipitation, MM = Missing Value Source: NWS Daily Summary

Daily Weather History Graph

Daily Weather History Graph

Search for Another Location

Airport:

Trip Planner

Search our weather history database for the weather conditions in past years. The results will help you decide how hot, cold, wet, or windy it might be!

Date:

Astronomy

Sep. 18, 2013 Rise Set
Actual Time 7:16 AM EDT 7:32 PM EDT
Civil Twilight 6:52 AM EDT 7:56 PM EDT
Nautical Twilight 6:23 AM EDT 8:25 PM EDT
Astronomical Twilight 5:54 AM EDT 8:53 PM EDT
Moon 6:55 PM EDT (9/18) 6:18 AM EDT (9/18)
Length of Visible Light 13h 04m
Length of Day
12h 15m
Waxing Gibbous, 99% of the Moon is Illuminated
Sep 18
Waxing Gibbous
Sep 19
Full
Sep 26
Last Quarter
Oct 4
New
Oct 11
First Quarter

Hourly Weather History & Observations

Time (EDT) Temp. Heat Index Dew Point Humidity Pressure Visibility Wind Dir Wind Speed Gust Speed Precip Events Conditions
12:15 AM 70.3 °F - 67.1 °F 89% 30.15 in 10.0 mi NE 5.8 mph - N/A   Clear
12:35 AM 70.2 °F - 66.7 °F 89% 30.15 in 10.0 mi ENE 4.6 mph - N/A   Clear
12:55 AM 70.0 °F - 66.4 °F 88% 30.15 in 10.0 mi NE 4.6 mph - N/A   Clear
1:15 AM 69.8 °F - 66.2 °F 88% 30.15 in 10.0 mi ENE 4.6 mph - N/A   Clear
1:35 AM 69.3 °F - 66.0 °F 89% 30.15 in 10.0 mi ENE 3.5 mph - N/A   Clear
1:55 AM 68.9 °F - 65.8 °F 90% 30.14 in 10.0 mi NE 3.5 mph - N/A   Clear
2:15 AM 68.7 °F - 65.8 °F 90% 30.14 in 10.0 mi NE 3.5 mph - N/A   Clear
2:35 AM 68.4 °F - 65.5 °F 90% 30.14 in 10.0 mi NE 4.6 mph - N/A   Clear
2:55 AM 68.2 °F - 65.1 °F 90% 30.14 in 10.0 mi NE 4.6 mph - N/A   Clear
3:15 AM 68.0 °F - 64.8 °F 89% 30.13 in 10.0 mi NE 3.5 mph - N/A   Clear
3:35 AM 68.0 °F - 64.6 °F 89% 30.13 in 10.0 mi NE 4.6 mph - N/A   Clear
3:55 AM 67.6 °F - 64.4 °F 89% 30.13 in 10.0 mi NE 4.6 mph - N/A   Clear
4:15 AM 67.5 °F - 64.4 °F 90% 30.13 in 10.0 mi NE 6.9 mph - N/A   Clear
4:35 AM 67.5 °F - 64.0 °F 89% 30.13 in 10.0 mi NE 4.6 mph - N/A   Clear
4:55 AM 67.3 °F - 63.7 °F 88% 30.13 in 10.0 mi NE 4.6 mph - N/A   Clear
5:15 AM 66.9 °F - 63.7 °F 89% 30.13 in 10.0 mi NE 5.8 mph - N/A   Clear
5:35 AM 66.6 °F - 63.5 °F 90% 30.13 in 10.0 mi NE 5.8 mph - N/A   Clear
5:55 AM 66.6 °F - 63.5 °F 90% 30.13 in 10.0 mi NE 6.9 mph - N/A   Clear
6:15 AM 66.4 °F - 63.5 °F 90% 30.14 in 10.0 mi NE 6.9 mph - N/A   Clear
6:35 AM 66.2 °F - 63.3 °F 90% 30.14 in 10.0 mi NE 5.8 mph - N/A   Clear
6:55 AM 66.2 °F - 63.5 °F 91% 30.15 in 10.0 mi NE 4.6 mph - N/A   Clear
7:15 AM 66.0 °F - 63.5 °F 92% 30.16 in 10.0 mi NE 4.6 mph - N/A   Clear
7:35 AM 65.8 °F - 63.5 °F 92% 30.16 in 10.0 mi NE 5.8 mph - N/A   Clear
7:55 AM 66.0 °F - 63.7 °F 92% 30.16 in 10.0 mi NE 5.8 mph - N/A   Clear
8:15 AM 66.7 °F - 64.0 °F 91% 30.16 in 10.0 mi NE 8.1 mph - N/A   Clear
8:35 AM 67.6 °F - 64.4 °F 89% 30.17 in 10.0 mi ENE 5.8 mph - N/A   Clear
8:55 AM 68.5 °F - 64.9 °F 88% 30.17 in 10.0 mi ENE 10.4 mph - N/A   Clear
9:15 AM 69.8 °F - 65.3 °F 86% 30.17 in 10.0 mi ENE 8.1 mph - N/A   Clear
9:35 AM 71.2 °F - 66.0 °F 84% 30.18 in 10.0 mi NE 5.8 mph - N/A   Scattered Clouds
9:55 AM 72.3 °F - 66.4 °F 82% 30.18 in 10.0 mi ENE 9.2 mph 16.1 mph N/A   Clear
10:15 AM 73.6 °F - 66.7 °F 79% 30.19 in 10.0 mi ENE 10.4 mph 17.3 mph N/A   Clear
10:35 AM 75.0 °F - 66.9 °F 76% 30.19 in 10.0 mi ENE 10.4 mph - N/A   Scattered Clouds
10:55 AM 75.7 °F - 67.1 °F 74% 30.19 in 10.0 mi ENE 8.1 mph - N/A   Scattered Clouds
11:15 AM 76.8 °F - 67.3 °F 72% 30.19 in 10.0 mi NE 10.4 mph - N/A   Scattered Clouds
11:35 AM 77.9 °F - 66.7 °F 68% 30.20 in 10.0 mi East 11.5 mph 18.4 mph N/A   Scattered Clouds
11:55 AM 78.8 °F - 66.4 °F 66% 30.19 in 10.0 mi East 8.1 mph - N/A   Scattered Clouds
12:15 PM 79.3 °F - 66.0 °F 64% 30.19 in 10.0 mi ENE 11.5 mph 17.3 mph N/A   Scattered Clouds
12:35 PM 79.7 °F - 65.3 °F 61% 30.18 in 10.0 mi East 9.2 mph - N/A   Clear
12:55 PM 80.8 °F 82.5 °F 64.8 °F 58% 30.18 in 10.0 mi East 9.2 mph - N/A   Clear
1:15 PM 81.1 °F 82.8 °F 64.4 °F 57% 30.17 in 10.0 mi ENE 5.8 mph 16.1 mph N/A   Clear
1:35 PM 81.5 °F 82.9 °F 63.7 °F 55% 30.17 in 10.0 mi ENE 9.2 mph - N/A   Scattered Clouds
1:55 PM 81.9 °F 83.1 °F 63.0 °F 53% 30.16 in 10.0 mi NE 10.4 mph 17.3 mph N/A   Clear
2:15 PM 82.6 °F 83.8 °F 63.1 °F 52% 30.15 in 10.0 mi ENE 9.2 mph 24.2 mph N/A   Clear
2:35 PM 82.9 °F 83.8 °F 62.6 °F 50% 30.15 in 10.0 mi ENE 11.5 mph 16.1 mph N/A   Clear
2:55 PM 82.8 °F 83.3 °F 61.2 °F 48% 30.14 in 10.0 mi NNE 10.4 mph 16.1 mph N/A   Clear
3:15 PM 83.1 °F 83.7 °F 61.5 °F 48% 30.13 in 10.0 mi East 11.5 mph - N/A   Clear
3:35 PM 82.9 °F 83.3 °F 60.6 °F 47% 30.12 in 10.0 mi East 8.1 mph - N/A   Clear
3:55 PM 83.7 °F 83.9 °F 60.6 °F 46% 30.12 in 10.0 mi NNE 8.1 mph - N/A   Clear
4:15 PM 83.7 °F 83.9 °F 60.8 °F 46% 30.12 in 10.0 mi ENE 10.4 mph - N/A   Clear
4:35 PM 83.3 °F 83.5 °F 60.8 °F 46% 30.11 in 10.0 mi ENE 8.1 mph - N/A   Clear
4:55 PM 83.1 °F 83.3 °F 60.6 °F 46% 30.11 in 10.0 mi ENE 9.2 mph - N/A   Clear
5:15 PM 82.8 °F 83.0 °F 60.3 °F 46% 30.11 in 10.0 mi ENE 5.8 mph - N/A   Clear
5:35 PM 82.8 °F 83.1 °F 60.4 °F 47% 30.10 in 10.0 mi NE 9.2 mph - N/A   Clear
5:55 PM 82.2 °F 82.6 °F 59.9 °F 47% 30.10 in 10.0 mi NE 9.2 mph - N/A   Clear
6:15 PM 81.9 °F 82.2 °F 59.9 °F 47% 30.11 in 10.0 mi NE 5.8 mph - N/A   Clear
6:35 PM 81.0 °F 81.6 °F 60.3 °F 49% 30.11 in 10.0 mi NE 5.8 mph - N/A   Clear
6:55 PM 79.7 °F - 61.2 °F 53% 30.11 in 10.0 mi ENE 3.5 mph - N/A   Clear
7:15 PM 78.4 °F - 61.9 °F 57% 30.11 in 10.0 mi ENE 3.5 mph - N/A   Clear
7:35 PM 76.8 °F - 62.8 °F 62% 30.11 in 10.0 mi Calm Calm - N/A   Clear
7:55 PM 75.4 °F - 63.0 °F 65% 30.12 in 10.0 mi Calm Calm - N/A   Clear
8:15 PM 75.2 °F - 62.6 °F 65% 30.12 in 10.0 mi ENE 4.6 mph - N/A   Clear
8:35 PM 74.3 °F - 62.8 °F 67% 30.13 in 10.0 mi ENE 3.5 mph - N/A   Clear
8:55 PM 73.4 °F - 63.1 °F 70% 30.13 in 10.0 mi ENE 3.5 mph - N/A   Clear
9:15 PM 73.2 °F - 63.0 °F 70% 30.14 in 10.0 mi ENE 4.6 mph - N/A   Clear
9:35 PM 72.3 °F - 63.3 °F 73% 30.14 in 10.0 mi ENE 4.6 mph - N/A   Clear
9:55 PM 71.8 °F - 63.5 °F 75% 30.15 in 10.0 mi Calm Calm - N/A   Clear
10:15 PM 71.1 °F - 63.5 °F 77% 30.15 in 10.0 mi Calm Calm - N/A   Clear
10:35 PM 70.2 °F - 63.5 °F 79% 30.15 in 10.0 mi Calm Calm - N/A   Clear
10:55 PM 70.3 °F - 63.3 °F 78% 30.15 in 10.0 mi Calm Calm - N/A   Clear
11:15 PM 69.8 °F - 63.5 °F 80% 30.15 in 10.0 mi ENE 4.6 mph - N/A   Clear
11:35 PM 69.6 °F - 63.0 °F 79% 30.15 in 10.0 mi ENE 3.5 mph - N/A   Clear
11:55 PM 69.3 °F - 62.8 °F 80% 30.15 in 10.0 mi ENE 3.5 mph - N/A   Clear